Content
SEND FEEDBACK

Daily
Averages
Monthly
Summary
Canada

QUEBEC CITY, QUEBEC


Home > North America > Canada > Quebec
Elevation: 72 meters     Latitude: 46 48N     Longitude: 071 23W

WEATHER
 
SELECT A DAY
Number of Records: 192,552;   Date Range: 6/30/96 - 8/27/14
 
SHARE

PRINT THIS DATA

[ ← Previous Day ]
WEATHER ALMANAC - 31 JANUARY, 2013
[ Next Day → ]
[ °F ]   °C
Weather ElementAverageHighLow
Temperature0.8 °C7 °C (5:00 am)-12 °C (11:00 pm)
Dewpoint-8.7 °C6.1 °C (7:00 am)-19 °C (11:00 pm)
Humidity77.1 %100 % (1:00 am)46 % (7:00 pm)
Wind Speed40.9 km/h83.4 km/h (2:35 pm)
Wind Gust103.6 km/h (1:27 pm)
Weather ElementAverage
Visibility10.8 km
Wind Direction (408 °)

Weather ElementTotal
Precipitation---
Heating Degree Days20.8 (Base 18.3)
Averaged from 50 records on 31 January, 2013
WEATHER CONDITIONS BREAKOUT
WIND DIRECTION BREAKOUT
WEATHER BY HOUR - 31 JANUARY, 2013
[ °F ]   °C
Local TimeTemperatureDewpointHumidityBarometerVisibilityWind DirectionWind SpeedGust SpeedPrecipitationEventsConditions
1:00 AM3.3 °C3.3 °C100 %988.1 hPaNE (40°)1.9 km/h
1:00 AM5 °C4 °C93 %988.5 hPa12.9 kmNNE (20°)7.4 km/hOvercast
1:44 AM5 °C-17.8 °C12.9 kmNE (40°)3.7 km/hRainLight Rain
2:00 AM5 °C5 °C100 %987.1 hPa12.9 kmNNE (30°)7.4 km/hRainLight Rain
2:39 AM4 °C-17.8 °C0 km4.6 (2013°)0 mmLight Rain360
3:00 AM5 °C4 °C93 %984.8 hPa0.8 kmNNE (20°)3.7 km/hFog-RainRain
4:00 AM6 °C4 °C87 %982.4 hPa0.3 kmNE (50°)7.4 km/hFog-RainRain
4:00 AM3.3 °C3.3 °C100 %982.1 hPaNE (50°)3.7 km/h
5:00 AM7 °C6 °C93 %980 hPa0.6 kmENE (70°)11.1 km/hFog-RainRain
5:18 AM7 °C-17.8 °C0 km8.1 (2013°)0 mmRain60
6:00 AM6 °C6 °C100 %976.6 hPa0.6 kmNNE (30°)7.4 km/hFog-RainLight Rain
6:22 AM6 °C-17.8 °C0 km5.8 (2013°)0 mmLight Rain30
6:35 AM4 °C-17.8 °C0 kmCalm (2013°)0 mmLight Rain0
7:00 AM6.1 °C6.1 °C100 %974.3 hPaENE (60°)3.7 km/h
7:00 AM7 °C6 °C93 %974.9 hPa1.3 kmENE (60°)9.3 km/hOvercast
7:27 AM7 °C-17.8 °C0 km4.6 (2013°)0 mmLight Rain10
8:00 AM6 °C6 °C100 %972.6 hPa1.6 kmSE (140°)3.7 km/hRainLight Rain
8:47 AM7 °C-17.8 °C2.4 kmENE (60°)5.6 km/hRainLight Rain
9:00 AM7 °C5 °C87 %971.2 hPa1.6 kmSW (220°)16.7 km/h29.6 km/hRainRain
9:09 AM7 °C-17.8 °C2.9 kmWSW (240°)46.3 km/h57.5 km/hRainLight Rain
9:35 AM6 °C-17.8 °C6.4 kmSW (230°)48.1 km/hRainLight Rain
10:00 AM5.6 °C5.6 °C99 %971.9 hPaWSW (240°)27.8 km/h
10:00 AM5 °C4 °C93 %971.9 hPa9.7 kmWSW (240°)46.3 km/h59.2 km/hRainLight Rain
11:00 AM3 °C1 °C87 %974.3 hPa9.7 kmSW (230°)51.8 km/h76 km/hRainLight Rain
11:38 AM3 °C-17.8 °C9.7 kmWSW (240°)50.1 km/h66.6 km/hRainLight Rain
12:00 PM3 °C0 °C81 %973.6 hPa12.9 kmWSW (240°)57.5 km/h74 km/hRainLight Rain
12:36 PM2 °C-17.8 °C12.9 kmSW (230°)70.3 km/h88.8 km/hRain-SnowLight Rain
1:00 PM2.2 °C-2.2 °C65 %974.6 hPaWSW (240°)42.6 km/h
1:00 PM2 °C-3 °C70 %974.3 hPa16.1 kmSW (230°)66.6 km/h94.5 km/hSnowLight Snow Showers
1:27 PM2 °C-17.8 °C16.1 kmSW (230°)72.3 km/h103.6 km/hMostly Cloudy
2:00 PM1 °C-5 °C65 %976 hPa24.1 kmSW (230°)70.3 km/h92.5 km/hMostly Cloudy
2:35 PM1 °C-17.8 °C19.3 kmSW (230°)83.4 km/h98.2 km/hSnowLight Snow Showers
3:00 PM0 °C-7 °C60 %978.3 hPa24.1 kmWSW (240°)81.4 km/h98.2 km/hMostly Cloudy
4:00 PM-0.6 °C-7.2 °C48 %980.7 hPaWSW (240°)37 km/h
4:00 PM-1 °C-8 °C60 %980.4 hPa24.1 kmWSW (240°)64.9 km/h92.5 km/hSnowLow Drifting Snow
5:00 PM-2 °C-9 °C59 %981.4 hPa24.1 kmWSW (240°)76 km/h94.5 km/hSnowLight Snow Showers
5:22 PM-3 °C-17.8 °C2.4 kmWSW (240°)64.9 km/h98.2 km/hSnowLight Snow
5:28 PM-3 °C-17.8 °C8 kmWest (260°)66.6 km/h99.9 km/hSnowLight Snow Showers
5:54 PM-5 °C-17.8 °C0 km32.2 (2013°)66.6 km/h0 mmLight Snow Showers260
6:00 PM-5 °C-7 °C86 %984.4 hPa2.4 kmWest (260°)53.8 km/h66.6 km/hSnowLight Snow Showers
6:28 PM-6 °C-17.8 °C24.1 kmWest (270°)53.8 km/h70.3 km/hMostly Cloudy
7:00 PM-6.7 °C-13.3 °C46 %987.1 hPaWest (270°)53.8 km/h
7:00 PM-7 °C-14 °C58 %986.5 hPa24.1 kmWest (270°)59.2 km/h77.7 km/hSnowLight Snow Showers
7:43 PM-9 °C-17.8 °C24.1 kmWest (280°)48.1 km/h68.6 km/hOvercast
8:00 PM-9 °C-17 °C53 %989.2 hPa24.1 kmWest (270°)44.4 km/h74 km/hOvercast
9:00 PM-10 °C-18 °C53 %991.2 hPa24.1 kmWest (260°)40.7 km/h59.2 km/hMostly Cloudy
10:00 PM-10.6 °C-16.7 °C46 %992.6 hPaWest (260°)38.9 km/h
10:00 PM-11 °C-18 °C57 %992.6 hPa24.1 kmWest (270°)51.8 km/h74 km/hMostly Cloudy
10:25 PM-11 °C-17.8 °C12.9 kmWSW (250°)53.8 km/h70.3 km/hSnowLight Snow Showers
11:00 PM-12 °C-19 °C57 %993.2 hPa24.1 kmWest (260°)55.5 km/h64.9 km/hSnowLight Snow Showers
Hourly data recorded from CYQB, located 0 kilometers away from Quebec City, Quebec







STORIES FROM OUR PARTNERS